Philip, SD

12:18 AM MDT on April 27, 2017 (GMT -0600)
Philip

Weather History for KPHP - November, 2011

Change the Weather History Date:

Friday, November 25, 2011

  Actual Average Record
Temperature  
Mean Temperature 47 °F 29 °F  
Max Temperature 60 °F 42 °F 76 °F (1960)
Min Temperature 33 °F 17 °F 0 °F (1993)
Degree Days  
Heating Degree Days 18 36  
Month to date heating degree days 745 744  
Since 1 July heating degree days 1288 1447  
Cooling Degree Days 0 0  
Month to date cooling degree days 0 0  
Year to date cooling degree days 837 818  
Moisture  
Dew Point 30 °F    
Average Humidity 57    
Maximum Humidity 75    
Minimum Humidity 39    
Precipitation  
Precipitation 0.00 in 0.01 in 0.71 in (1984)
Month to date precipitation 0.42 0.55  
Year to date precipitation 15.77 16.85  
Sea Level Pressure  
Sea Level Pressure 29.69 in    
Wind  
Wind Speed 12 mph (WNW)    
Max Wind Speed 32 mph    
Max Gust Speed 43 mph    
Visibility 10 miles    
Events      
T = Trace of Precipitation, MM = Missing Value Source: NWS Daily Summary

Daily Weather History Graph

Daily Weather History Graph

Search for Another Location

Airport or City:

Trip Planner

Search our weather history database for the weather conditions in past years. The results will help you decide how hot, cold, wet, or windy it might be!

Date:

Astronomy

Nov. 25, 2011 Rise Set
Actual Time 6:53 AM MST 4:12 PM MST
Civil Twilight 6:21 AM MST 4:44 PM MST
Nautical Twilight 5:46 AM MST 5:20 PM MST
Astronomical Twilight 5:11 AM MST 5:54 PM MST
Moon 7:26 AM MST (11/25) 4:39 PM MST (11/25)
Length of Visible Light 10h 22m
Length of Day
9h 18m
New Moon, 0% of the Moon is Illuminated
Nov 25
New Moon
Dec 2
First Quarter
Dec 10
Full
Dec 17
Last Quarter
Dec 24
New

Hourly Weather History & Observations

Time (MST) Temp. Windchill Dew Point Humidity Pressure Visibility Wind Dir Wind Speed Gust Speed Precip Events Conditions
12:55 AM 37.9 °F - 28.9 °F 70% 29.64 in 10.0 mi Calm Calm - N/A   Clear
1:55 AM 37.9 °F 34.4 °F 28.9 °F 70% 29.62 in 10.0 mi North 4.6 mph - N/A   Clear
2:55 AM 37.9 °F - 28.0 °F 68% 29.62 in 10.0 mi Calm Calm - N/A   Clear
3:55 AM 33.1 °F - 26.1 °F 75% 29.61 in 10.0 mi Calm Calm - N/A   Clear
4:55 AM 39.0 °F 36.8 °F 27.0 °F 62% 29.61 in 10.0 mi WNW 3.5 mph - N/A   Clear
5:55 AM 33.1 °F 26.9 °F 27.0 °F 78% 29.62 in 10.0 mi West 6.9 mph - N/A   Clear
6:55 AM 35.1 °F 27.4 °F 27.0 °F 72% 29.62 in 10.0 mi WNW 10.4 mph - N/A   Clear
7:55 AM 36.0 °F 29.0 °F 28.0 °F 73% 29.65 in 10.0 mi West 9.2 mph - N/A   Clear
8:55 AM 44.1 °F 38.6 °F 30.9 °F 60% 29.65 in 10.0 mi West 10.4 mph - N/A   Clear
9:55 AM 48.0 °F - 30.9 °F 52% 29.65 in 10.0 mi West 11.5 mph - N/A   Clear
10:55 AM 53.1 °F - 32.0 °F 45% 29.63 in 10.0 mi WNW 9.2 mph - N/A   Clear
11:55 AM 55.0 °F - 32.0 °F 42% 29.60 in 10.0 mi WNW 11.5 mph - N/A   Clear
12:55 PM 57.0 °F - 32.0 °F 39% 29.61 in 10.0 mi WNW 13.8 mph - N/A   Clear
1:55 PM 57.0 °F - 33.1 °F 40% 29.60 in 10.0 mi West 17.3 mph - N/A   Clear
2:55 PM 57.0 °F - 32.0 °F 39% 29.62 in 10.0 mi NNW 10.4 mph - N/A   Clear
3:55 PM 53.1 °F - 32.0 °F 45% 29.66 in 10.0 mi NW 5.8 mph - N/A   Clear
4:55 PM 43.0 °F 40.3 °F 30.9 °F 62% 29.68 in 10.0 mi WNW 4.6 mph - N/A   Clear
5:55 PM 42.1 °F 37.7 °F 30.0 °F 62% 29.73 in 10.0 mi WNW 6.9 mph - N/A   Mostly Cloudy
7:55 PM 46.0 °F 37.6 °F 30.9 °F 56% 29.84 in 10.0 mi NW 24.2 mph 31.1 mph N/A   Overcast
8:55 PM 45.0 °F 36.0 °F 30.9 °F 58% 29.85 in 10.0 mi NW 25.3 mph 42.6 mph N/A   Overcast
9:55 PM 46.0 °F 37.6 °F 28.9 °F 51% 29.91 in 10.0 mi NW 24.2 mph 33.4 mph N/A   Overcast
10:55 PM 45.0 °F 36.9 °F 28.9 °F 53% 29.95 in 10.0 mi NW 20.7 mph 31.1 mph N/A   Overcast
11:55 PM 45.0 °F 35.1 °F 26.1 °F 48% 29.98 in 10.0 mi NW 31.1 mph 42.6 mph N/A   Scattered Clouds